STARLINK-11117, 59761

Orbit data source: Space-Track

STARLINK-11117, 59761 is a payload satellite owned by SpaceX/Seattle (US) in LEO that was launched on Tue, 14 May 2024 UTC via an FALCON 9 launch vehicle from the Air Force Western Test Range (AFWTR). Payload-class satellites include a variety of spacecraft equipped with specific instruments for various scientific and technological missions. These include communications satellites like Starlink; space stations such as the ISS; scientific satellites like the Hubble; Earth observation satellites from companies like Planet Labs, Umbra, and HawkEye 360; GPS; miniature CubeSats for education and research; and military/defense satellites.

Loading next visibility...
Identifier
59761, 2024-091J
Orbit
LEO
Country
Flag of USUS
Related business
Manufacturer
SpaceX/Seattle
Mission
Operational Commercial Communications
Bus & Motor
STARLINK V2MD, Unknown motor
Mass
960 kg wet, ~910 kg dry
Launch date (UTC)
2024-05-14 (2 years ago)
Launch vehicle
FALCON 9
Launch site
Air Force Western Test Range (AFWTR)
Object type
Payload
Rocket body
Debris
Shape & HBR
Box + 2 Pan, 18.1 m
Radar Cross Section
36.964 m², Large (>1 m²)

Expand to show TLE details & history
Last TLE update: 3 days ago

TLE from 3 days ago
0 STARLINK-11117
1 59761U 24091J   26170.93399894 -.00000757  00000-0 -13901-5 0  9994
2 59761  53.1592  62.1122 0000927  87.8110 272.3014 15.69703669121579
Epoch: 2026-06-19T22:24Z
TLE epoch observation values (Epoch: 2026-06-19T22:24:57.508Z)
Latitude
-0.00002°
Longitude
177.71671°
Altitude
360.635 km
Speed
7.694 km/s
True Right ascension
04h 08m 26s
True Declination
0° 00' 00"
Sunlit
Object was in daylight at epoch
Visualization orbit readout
Latitude
Unknown
Longitude
Unknown
Altitude
Unknown
Speed
Unknown
Apparent Right ascension
Unknown
Apparent Declination
Unknown
Sunlit
N/A
Visualization observer readout
Local Sidereal Time
21:31:41
Azimuth
Unknown
Elevation
Unknown
Doppler factor
Unknown
Orbital elements
Apogee altitude
360.63 km
Perigee altitude
359.381 km
Semi-major axis
6,738.143 km
Eccentricity
0.00009
Inclination
53.1592°
RAAN
62.1122°
Arg. of periapsis
87.811°
True anomaly
272.29079°
Mean anomaly
272.3014°
Eccentric anomaly
272.29609°
Mean motion
3.92403 °/min
Orbital period
91.74 mins
BSTAR
-0.0000013901
Loading maneuver chart data...
Computing Atmospheric mass density...
Loading historical data...
Loading historical data...
Loading historical data...
Loading historical data...
Loading historical data...
Loading historical data...
Loading historical data...

Documentation

Showing up to 5 results
|